Weather History for Hattiesburg, MS

Change the Weather History Date:

Tuesday, August 20, 2013

  Actual Average Record
Temperature  
Mean Temperature 82 °F 82 °F  
Max Temperature 91 °F 92 °F 102 °F (2000)
Min Temperature 72 °F 71 °F 60 °F (1976)
Degree Days  
Heating Degree Days 0 0  
Month to date heating degree days 0 0  
Since 1 June heating degree days 0 0  
Since 1 July heating degree days 0 0  
Cooling Degree Days 17 16  
Month to date cooling degree days 336 338  
Year to date cooling degree days 1616 1698  
Since 1 June cooling degree days 1274 1283  
Growing Degree Days 30 (Base 50)    
Moisture  
Dew Point 72 °F    
Average Humidity 76    
Maximum Humidity 100    
Minimum Humidity 52    
Precipitation  
Precipitation T in 0.16 in 3.54 in (1953)
Month to date precipitation 3.80 3.01  
Year to date precipitation 51.94 40.44  
Sea Level Pressure  
Sea Level Pressure 30.05 in    
Wind  
Wind Speed 3 mph (SE)    
Max Wind Speed 15 mph    
Max Gust Speed 29 mph    
Visibility 7 miles    
Events Fog , Thunderstorm    
T = Trace of Precipitation, MM = Missing Value Source: NWS Daily Summary

Daily Weather History Graph

Daily Weather History Graph

Search for Another Location

Airport:

Trip Planner

Search our weather history database for the weather conditions in past years. The results will help you decide how hot, cold, wet, or windy it might be!

Date:

Astronomy

Aug. 20, 2013 Rise Set
Actual Time 6:25 AM CDT 7:34 PM CDT
Civil Twilight 6:00 AM CDT 7:59 PM CDT
Nautical Twilight 5:30 AM CDT 8:29 PM CDT
Astronomical Twilight 4:59 AM CDT 9:00 PM CDT
Moon 7:09 PM CDT (8/20) 5:54 AM CDT (8/20)
Length of Visible Light 13h 58m
Length of Day
13h 08m
Full, 100% of the Moon is Illuminated
Aug 20
Full
Aug 20
Full
Aug 28
Last Quarter
Sep 5
New
Sep 12
First Quarter

Hourly Weather History & Observations

Time (CDT) Temp. Heat Index Dew Point Humidity Pressure Visibility Wind Dir Wind Speed Gust Speed Precip Events Conditions
12:53 AM 75.0 °F - 72.0 °F 90% 30.02 in 10.0 mi SE 3.5 mph - N/A   Clear
1:53 AM 75.0 °F - 72.0 °F 90% 30.01 in 10.0 mi Calm Calm - N/A   Mostly Cloudy
2:53 AM 73.9 °F - 72.0 °F 93% 30.01 in 10.0 mi Calm Calm - N/A   Clear
3:53 AM 73.9 °F - 71.1 °F 91% 30.01 in 10.0 mi Calm Calm - N/A   Clear
4:53 AM 72.0 °F - 70.0 °F 93% 30.01 in 10.0 mi SE 3.5 mph - N/A   Clear
5:34 AM 71.6 °F - 69.8 °F 94% 30.02 in 8.0 mi Calm Calm - N/A   Scattered Clouds
5:43 AM 73.4 °F - 71.6 °F 94% 30.03 in 8.0 mi Calm Calm - N/A   Mostly Cloudy
5:53 AM 72.0 °F - 71.1 °F 97% 30.02 in 4.0 mi Calm Calm - N/A   Overcast
5:58 AM 71.6 °F - 71.6 °F 100% 30.03 in 1.8 mi Calm Calm - N/A   Overcast
6:08 AM 71.6 °F - 71.6 °F 100% 30.03 in 0.5 mi Calm Calm - N/A Fog Fog
6:18 AM 71.6 °F - 71.6 °F 100% 30.03 in 0.2 mi Calm Calm - N/A Fog Fog
6:26 AM 71.6 °F - 71.6 °F 100% 30.04 in 0.5 mi Calm Calm - N/A Fog Fog
6:37 AM 71.6 °F - 71.6 °F 100% 30.04 in 0.2 mi Calm Calm - N/A Fog Fog
6:53 AM 72.0 °F - 71.1 °F 97% 30.04 in 0.2 mi Calm Calm - N/A Fog Fog
7:43 AM 73.4 °F - 71.6 °F 94% 30.06 in 0.8 mi Calm Calm - N/A   Mist
7:50 AM 73.4 °F - 71.6 °F 94% 30.06 in 1.5 mi Calm Calm - N/A   Overcast
7:53 AM 73.9 °F - 73.0 °F 97% 30.05 in 2.0 mi Calm Calm - N/A   Overcast
8:02 AM 73.4 °F - 73.4 °F 100% 30.06 in 4.0 mi Calm Calm - N/A   Overcast
8:53 AM 75.9 °F - 73.9 °F 94% 30.07 in 6.0 mi Calm Calm - N/A   Overcast
9:53 AM 79.0 °F - 75.0 °F 88% 30.09 in 10.0 mi Calm Calm - N/A   Mostly Cloudy
10:09 AM 80.6 °F 86.2 °F 75.2 °F 84% 30.10 in 10.0 mi Calm Calm - N/A   Partly Cloudy
10:53 AM 84.0 °F 89.6 °F 72.0 °F 67% 30.09 in 10.0 mi Calm Calm - N/A   Clear
11:53 AM 87.1 °F 94.5 °F 73.0 °F 63% 30.08 in 10.0 mi East 4.6 mph - N/A   Partly Cloudy
12:53 PM 89.1 °F 95.0 °F 71.1 °F 55% 30.06 in 10.0 mi Calm Calm - N/A   Mostly Cloudy
1:53 PM 89.1 °F 94.1 °F 70.0 °F 53% 30.04 in 10.0 mi ENE 3.5 mph - N/A   Mostly Cloudy
2:53 PM 88.0 °F 95.6 °F 73.0 °F 61% 30.02 in 10.0 mi South 3.5 mph - 0.00 in   Scattered Clouds
3:53 PM 88.0 °F 92.9 °F 70.0 °F 55% 30.02 in 10.0 mi ESE 12.7 mph - N/A   Partly Cloudy
4:53 PM 88.0 °F 94.7 °F 72.0 °F 59% 30.02 in 10.0 mi SE 9.2 mph - N/A   Clear
5:53 PM 84.9 °F 90.1 °F 71.1 °F 63% 30.02 in 10.0 mi SE 5.8 mph - N/A   Clear
6:53 PM 82.0 °F 86.3 °F 71.1 °F 69% 30.04 in 10.0 mi SSE 3.5 mph - N/A   Clear
7:06 PM 80.6 °F 84.6 °F 71.6 °F 74% 30.05 in 10.0 mi South 4.6 mph - N/A Thunderstorm Clear
7:21 PM 80.6 °F 84.6 °F 71.6 °F 74% 30.05 in 10.0 mi SSE 3.5 mph - N/A   Clear
7:53 PM 80.1 °F 83.8 °F 72.0 °F 76% 30.05 in 10.0 mi South 4.6 mph - N/A   Clear
8:53 PM 79.0 °F - 73.0 °F 82% 30.05 in 10.0 mi East 3.5 mph - N/A   Clear
9:53 PM 77.0 °F - 73.0 °F 88% 30.06 in 10.0 mi SE 3.5 mph - N/A   Clear
10:53 PM 77.0 °F - 73.0 °F 88% 30.08 in 10.0 mi SSE 3.5 mph - N/A   Clear
11:35 PM 75.2 °F - 73.4 °F 94% 30.10 in 10.0 mi SE 3.5 mph - N/A   Mostly Cloudy
11:53 PM 77.0 °F - 73.0 °F 88% 30.09 in 10.0 mi Calm Calm - N/A   Mostly Cloudy